• în România
  • Lista ţărilor
  • Pe 7 zile
  • Temperatura apei
  • Hartă satelitară
  • Meteo pe hartă
  • Widget-uri
  • user-avatar
    Intrare

    Meteo pe oră la Ropotamo

    Astăzi, 18 Iunie, Luni

    Timp Temperatura Precipitaţii Vânt Presiune Umiditate
    00:00 +21°C° 0 mm 1 m/s 753 mmHg 89%
    01:00 +19°C° 0 mm 2 m/s 753 mmHg 90%
    02:00 +19°C° 0 mm 2 m/s 753 mmHg 91%
    03:00 +19°C° 0,4 mm 2 m/s 753 mmHg 91%
    04:00 +19°C° 0,4 mm 2 m/s 753 mmHg 92%
    05:00 +19°C° 0,4 mm 3 m/s 753 mmHg 92%
    06:00 +20°C° 0 mm 3 m/s 753 mmHg 86%
    07:00 +22°C° 0 mm 3 m/s 753 mmHg 80%
    08:00 +25°C° 0 mm 4 m/s 753 mmHg 74%
    09:00 +26°C° 0,1 mm 4 m/s 753 mmHg 70%
    10:00 +28°C° 0,1 mm 4 m/s 753 mmHg 66%
    11:00 +29°C° 0,1 mm 4 m/s 753 mmHg 61%
    12:00 +29°C° 0,4 mm 4 m/s 753 mmHg 62%
    13:00 +29°C° 0,4 mm 5 m/s 753 mmHg 63%
    14:00 +29°C° 0,4 mm 5 m/s 753 mmHg 64%
    15:00 +29°C° 0,2 mm 5 m/s 753 mmHg 63%
    16:00 +28°C° 0,2 mm 5 m/s 753 mmHg 62%
    17:00 +28°C° 0,2 mm 6 m/s 753 mmHg 61%
    18:00 +26°C° 0 mm 5 m/s 753 mmHg 70%
    19:00 +25°C° 0 mm 5 m/s 753 mmHg 78%
    20:00 +22°C° 0 mm 4 m/s 753 mmHg 86%
    21:00 +21°C° 0 mm 4 m/s 754 mmHg 89%
    22:00 +21°C° 0 mm 4 m/s 754 mmHg 91%
    23:00 +20°C° 0 mm 3 m/s 755 mmHg 94%

    Mâine, 19 Iunie, Marţi

    Timp Temperatura Precipitaţii Vânt Presiune Umiditate
    00:00 +20°C° 0 mm 3 m/s 755 mmHg 94%
    01:00 +19°C° 0 mm 3 m/s 755 mmHg 94%
    02:00 +19°C° 0 mm 3 m/s 755 mmHg 94%
    03:00 +19°C° 0 mm 4 m/s 755 mmHg 93%
    04:00 +19°C° 0 mm 4 m/s 755 mmHg 93%
    05:00 +18°C° 0 mm 4 m/s 755 mmHg 92%
    06:00 +20°C° 0 mm 5 m/s 756 mmHg 82%
    07:00 +22°C° 0 mm 5 m/s 756 mmHg 72%
    08:00 +24°C° 0 mm 6 m/s 756 mmHg 62%
    09:00 +27°C° 0 mm 6 m/s 756 mmHg 56%
    10:00 +28°C° 0 mm 6 m/s 756 mmHg 50%
    11:00 +29°C° 0 mm 7 m/s 756 mmHg 44%
    12:00 +30°C° 0 mm 7 m/s 756 mmHg 44%
    13:00 +30°C° 0 mm 7 m/s 756 mmHg 45%
    14:00 +30°C° 0 mm 7 m/s 756 mmHg 45%
    15:00 +29°C° 0 mm 7 m/s 756 mmHg 48%
    16:00 +29°C° 0 mm 7 m/s 756 mmHg 51%
    17:00 +28°C° 0 mm 7 m/s 756 mmHg 54%
    18:00 +26°C° 0 mm 6 m/s 756 mmHg 62%
    19:00 +24°C° 0 mm 6 m/s 757 mmHg 69%
    20:00 +22°C° 0 mm 5 m/s 757 mmHg 77%
    21:00 +22°C° 0 mm 5 m/s 757 mmHg 81%
    22:00 +21°C° 0 mm 5 m/s 757 mmHg 85%
    23:00 +21°C° 0 mm 4 m/s 758 mmHg 90%

    Poimâine, 20 Iunie, Miercuri

    Timp Temperatura Precipitaţii Vânt Presiune Umiditate
    00:00 +20°C° 0 mm 4 m/s 758 mmHg 90%
    01:00 +20°C° 0 mm 4 m/s 758 mmHg 90%
    02:00 +20°C° 0 mm 4 m/s 758 mmHg 90%
    03:00 +19°C° 0 mm 4 m/s 758 mmHg 88%
    04:00 +19°C° 0 mm 5 m/s 758 mmHg 86%
    05:00 +19°C° 0 mm 5 m/s 758 mmHg 85%
    06:00 +21°C° 0 mm 5 m/s 758 mmHg 75%
    07:00 +23°C° 0 mm 6 m/s 758 mmHg 66%
    08:00 +26°C° 0 mm 6 m/s 759 mmHg 57%
    09:00 +28°C° 0 mm 6 m/s 759 mmHg 51%
    10:00 +29°C° 0 mm 6 m/s 759 mmHg 44%
    11:00 +32°C° 0 mm 7 m/s 759 mmHg 38%
    12:00 +32°C° 0 mm 7 m/s 759 mmHg 37%
    13:00 +32°C° 0 mm 6 m/s 759 mmHg 36%
    14:00 +33°C° 0 mm 6 m/s 758 mmHg 35%
    15:00 +32°C° 0 mm 6 m/s 758 mmHg 38%
    16:00 +30°C° 0 mm 6 m/s 758 mmHg 40%
    17:00 +30°C° 0 mm 6 m/s 758 mmHg 42%
    18:00 +27°C° 0 mm 5 m/s 758 mmHg 53%
    19:00 +25°C° 0 mm 5 m/s 758 mmHg 63%
    20:00 +22°C° 0 mm 4 m/s 759 mmHg 74%
    21:00 +21°C° 0 mm 4 m/s 759 mmHg 79%
    22:00 +21°C° 0 mm 3 m/s 759 mmHg 85%
    23:00 +20°C° 0 mm 3 m/s 759 mmHg 90%

    21 Iunie, Joi

    Timp Temperatura Precipitaţii Vânt Presiune Umiditate
    00:00 +20°C° 0 mm 3 m/s 759 mmHg 90%
    01:00 +19°C° 0 mm 3 m/s 758 mmHg 89%
    02:00 +19°C° 0 mm 3 m/s 758 mmHg 89%
    03:00 +19°C° 0 mm 3 m/s 758 mmHg 88%
    04:00 +19°C° 0 mm 3 m/s 758 mmHg 87%
    05:00 +19°C° 0 mm 4 m/s 758 mmHg 86%
    06:00 +21°C° 0 mm 4 m/s 758 mmHg 76%
    07:00 +23°C° 0 mm 4 m/s 758 mmHg 66%
    08:00 +26°C° 0 mm 4 m/s 758 mmHg 57%
    09:00 +28°C° 0 mm 4 m/s 758 mmHg 50%
    10:00 +30°C° 0 mm 4 m/s 757 mmHg 44%
    11:00 +32°C° 0 mm 4 m/s 757 mmHg 37%
    12:00 +33°C° 0 mm 4 m/s 757 mmHg 36%
    13:00 +33°C° 0 mm 4 m/s 756 mmHg 35%
    14:00 +34°C° 0 mm 4 m/s 756 mmHg 33%
    15:00 +33°C° 0 mm 3 m/s 756 mmHg 36%
    16:00 +33°C° 0 mm 3 m/s 755 mmHg 38%
    17:00 +31°C° 0 mm 3 m/s 755 mmHg 41%
    18:00 +29°C° 0 mm 2 m/s 755 mmHg 48%
    19:00 +27°C° 0 mm 2 m/s 755 mmHg 55%
    20:00 +24°C° 0 mm 1 m/s 755 mmHg 63%
    21:00 +24°C° 0 mm 1 m/s 755 mmHg 64%
    22:00 +23°C° 0 mm 1 m/s 755 mmHg 65%
    23:00 +20°C° 0 mm 0 m/s 755 mmHg 66%

    22 Iunie, Vineri

    Timp Temperatura Precipitaţii Vânt Presiune Umiditate
    00:00 +22°C° 0 mm 1 m/s 755 mmHg 67%
    01:00 +22°C° 0 mm 1 m/s 755 mmHg 68%
    02:00 +21°C° 0 mm 1 m/s 755 mmHg 69%
    03:00 +21°C° 0 mm 1 m/s 754 mmHg 69%
    04:00 +21°C° 0 mm 1 m/s 754 mmHg 70%
    05:00 +21°C° 0 mm 1 m/s 754 mmHg 70%
    06:00 +23°C° 0 mm 1 m/s 754 mmHg 64%
    07:00 +26°C° 0 mm 1 m/s 754 mmHg 58%
    08:00 +28°C° 0 mm 1 m/s 754 mmHg 51%
    09:00 +30°C° 0 mm 1 m/s 754 mmHg 47%
    10:00 +32°C° 0 mm 2 m/s 754 mmHg 43%
    11:00 +35°C° 0 mm 2 m/s 753 mmHg 40%
    12:00 +34°C° 0 mm 2 m/s 753 mmHg 41%
    13:00 +34°C° 0 mm 3 m/s 753 mmHg 42%
    14:00 +33°C° 0 mm 4 m/s 752 mmHg 43%
    15:00 +33°C° 0 mm 4 m/s 752 mmHg 43%
    16:00 +33°C° 0 mm 4 m/s 752 mmHg 43%
    17:00 +33°C° 0 mm 4 m/s 751 mmHg 43%
    18:00 +32°C° 0 mm 4 m/s 752 mmHg 47%
    19:00 +29°C° 0 mm 5 m/s 752 mmHg 51%
    20:00 +27°C° 0 mm 5 m/s 752 mmHg 54%
    21:00 +26°C° 0 mm 5 m/s 752 mmHg 57%
    22:00 +25°C° 0 mm 5 m/s 752 mmHg 61%
    23:00 +23°C° 0 mm 5 m/s 752 mmHg 64%

    23 Iunie, Sâmbătă

    Timp Temperatura Precipitaţii Vânt Presiune Umiditate
    00:00 +23°C° 0 mm 4 m/s 752 mmHg 65%
    01:00 +22°C° 0 mm 4 m/s 752 mmHg 67%
    02:00 +22°C° 0 mm 4 m/s 752 mmHg 68%
    03:00 +21°C° 0 mm 4 m/s 753 mmHg 71%
    04:00 +21°C° 0 mm 5 m/s 753 mmHg 75%
    05:00 +20°C° 0 mm 5 m/s 753 mmHg 78%
    06:00 +21°C° 0,3 mm 5 m/s 754 mmHg 78%
    07:00 +22°C° 0,3 mm 6 m/s 754 mmHg 77%
    08:00 +22°C° 0,3 mm 6 m/s 754 mmHg 76%
    09:00 +23°C° 0,2 mm 6 m/s 755 mmHg 71%
    10:00 +24°C° 0,2 mm 6 m/s 755 mmHg 65%
    11:00 +26°C° 0,2 mm 6 m/s 755 mmHg 60%
    12:00 +27°C° 0 mm 6 m/s 755 mmHg 56%
    13:00 +28°C° 0 mm 5 m/s 755 mmHg 52%
    14:00 +29°C° 0 mm 5 m/s 755 mmHg 48%
    15:00 +28°C° 0 mm 5 m/s 755 mmHg 52%
    16:00 +28°C° 0 mm 5 m/s 755 mmHg 55%
    17:00 +27°C° 0 mm 5 m/s 756 mmHg 59%
    18:00 +25°C° 0 mm 5 m/s 756 mmHg 65%
    19:00 +23°C° 0 mm 5 m/s 756 mmHg 71%
    20:00 +22°C° 0 mm 5 m/s 757 mmHg 77%
    21:00 +21°C° 0 mm 5 m/s 757 mmHg 78%
    22:00 +20°C° 0 mm 5 m/s 758 mmHg 80%
    23:00 +19°C° 0 mm 5 m/s 758 mmHg 81%
    Arată mai mult